STARLINK-4049 (52840 NORAD) Tracking and Keplerian Element Data

This shows tracking and keplerian element data for the satellite.

Feedback or suggestion? Click here.




ElementValue
Catalog52840
NameSTARLINK-4049
Epoch Orbit130
Epoch Day270.00001157
Epoch Year2022
RAAN289.0882
Inclination53.2169
Eccentricity0.0002028
Argument of Perigee49.6101
Mean Anonmoly10.0425
Mean Motion15.08821544
Decay Rate0.00043753
L11 52840U 22062L 22270.00001157 .00043753 00000+0 27515-2 0 9991
L22 52840 53.2169 289.0882 0002028 49.6101 10.0425 15.08821544 1301

Live tracking and technical data element details for STARLINK-4049 (NORAD 52840). STARLINK-4049 can be tracked NOW for your location showing map with azimuth and elevation plus other details from your city location.

Track the satellite on the map from your city or location and see movement details for azimuth, elevation, latitude, longitude, range, height, and movement on the map or in text.







IsCatalogInMostPopularTable: catalog: 52840, numindb: 4
Update: records affected: 1



GetName: 52840 STARLINK-4049

Hit Count: updated at: Thu, 06 Oct 2022 04:17:43 GMT